Wind_Speed
10 9 8 8 8 10 10 10 9 9 9 9 9 9 8 9 9 9 8 8 8 8 7 6 6 5 5 4 4 4 3 3 2 2 2 2 2 2 2 2 2 2 3 3 4 4 4 4 5
10 10 8 8 9 10 11 10 10 9 9 9 9 8 8 8 8 8 8 8 8 8 7 7 6 6 5 4 4 3 3 3 2 2 1 1 1 1 1 2 2 2 3 3 2 3 3 4 4
10 9 8 9 10 11 11 10 9 10 10 10 9 8 8 7 8 8 8 8 8 8 8 6 6 6 6 5 4 4 3 3 2 1 1 0 1 1 2 2 2 2 2 2 2 1 1 2 3
10 9 10 11 12 13 12 10 9 10 9 9 9 8 7 7 8 8 8 8 8 8 8 7 7 6 6 5 4 3 3 2 2 2 1 0 1 2 2 2 2 2 2 2 2 2 1 1 2
9 10 12 13 13 14 14 12 11 10 9 9 9 8 7 8 8 8 8 9 9 9 9 8 8 7 6 5 5 4 3 3 2 2 1 1 1 1 1 1 2 2 2 2 2 2 2 1 1
11 12 13 12 13 13 14 13 11 11 9 9 10 8 8 8 8 8 8 9 9 9 9 8 8 7 7 6 6 6 4 3 3 3 3 2 1 1 1 1 1 1 2 2 2 2 2 2 2
10 12 10 11 12 12 12 12 12 11 10 9 10 9 9 9 9 9 9 8 8 8 8 8 8 8 7 6 6 6 6 5 4 3 3 2 1 1 1 0 1 0 1 1 2 2 2 2 3
10 11 10 11 11 11 12 12 12 12 11 10 10 10 9 9 9 10 9 8 8 7 7 8 8 8 8 7 6 6 6 5 5 4 3 2 1 1 1 1 0 1 1 1 1 1 2 2 3
10 11 11 12 11 11 11 11 11 12 12 11 10 10 9 9 9 9 9 8 8 8 8 8 7 7 7 7 6 5 6 5 4 4 3 2 2 2 2 2 2 2 2 1 1 1 1 2 3
10 11 12 12 11 10 10 10 11 12 12 11 11 11 10 9 9 9 9 8 8 8 9 8 8 7 7 6 6 6 5 5 4 4 4 3 3 3 3 3 2 2 2 1 2 2 0 1 2
9 9 10 11 11 11 11 11 11 11 11 12 12 11 10 10 9 9 9 9 9 8 8 8 8 8 7 6 6 6 6 5 5 5 4 4 3 4 4 4 4 3 2 2 2 1 0 1 1
9 8 10 11 12 12 11 11 10 10 11 11 12 12 11 11 10 10 10 9 9 8 8 7 7 7 6 6 5 5 6 6 6 5 4 3 3 3 3 4 4 3 2 3 3 1 1 1 1
8 8 9 10 11 10 10 10 11 10 10 11 12 12 12 11 10 10 10 9 9 8 7 7 6 6 6 6 6 5 5 5 5 5 4 3 3 2 3 3 4 3 2 2 3 2 2 1 1
7 8 8 8 8 9 10 10 10 10 10 10 11 12 12 11 10 10 10 9 9 8 8 7 6 6 6 6 5 4 5 5 5 5 4 3 3 3 3 3 3 3 3 2 2 2 2 1 2
5 7 7 7 8 8 9 9 10 10 10 10 11 10 10 10 10 10 10 9 9 9 8 7 7 7 6 6 6 6 6 6 6 5 4 4 3 3 3 3 3 3 3 2 2 2 3 3 3
5 5 5 6 6 7 8 9 9 10 10 11 10 10 9 10 10 9 9 10 9 9 9 8 7 7 7 7 6 6 7 6 5 4 4 4 4 3 3 3 3 3 3 3 3 3 3 3 4
3 4 5 6 7 7 8 8 8 9 10 11 9 9 9 10 9 9 9 9 9 9 9 8 7 7 7 7 6 6 6 6 5 4 5 5 5 4 4 4 4 4 4 3 4 4 4 4 4
2 4 4 6 6 7 7 8 8 8 9 9 8 8 9 10 10 9 10 9 9 8 8 7 7 7 7 7 7 6 6 6 5 5 5 5 5 5 5 5 5 5 5 5 5 5 5 6 5
1 2 4 5 5 6 6 7 8 9 8 8 8 8 8 9 9 9 10 9 9 9 8 8 7 7 7 7 7 6 5 6 6 6 6 6 6 5 5 6 6 6 6 6 6 7 7 7 7
4 4 4 6 8 8 6 7 7 9 9 9 9 8 8 8 8 8 9 9 9 9 9 8 8 8 8 8 8 7 6 6 7 7 6 7 7 7 6 6 7 7 7 8 8 8 8 8 8
7 6 6 8 8 8 8 7 8 9 10 10 9 10 10 10 9 8 8 9 9 9 9 9 8 9 9 8 8 8 7 7 7 7 7 8 8 8 7 8 8 8 8 8 9 9 9 9 10
9 8 8 9 9 9 8 8 9 10 11 11 11 11 11 11 10 10 10 9 9 9 9 9 9 9 9 9 7 7 8 8 8 8 9 9 9 9 9 9 10 10 10 10 10 10 10 10 10
9 9 10 11 12 12 11 11 10 11 13 13 12 12 12 12 12 12 12 11 10 10 10 10 10 10 10 9 8 8 8 9 9 9 10 10 10 10 11 11 11 11 11 11 11 11 11 11 11
10 11 11 12 12 11 11 13 12 12 13 13 13 12 12 13 14 13 13 12 11 10 10 10 10 11 11 10 9 9 10 10 10 11 11 12 12 12 12 13 13 12 12 13 13 13 13 12 13
11 11 12 13 13 12 13 15 14 13 13 13 14 14 12 13 14 14 14 13 12 12 11 11 11 11 12 11 11 11 11 11 11 12 13 13 13 14 14 14 14 14 14 14 14 14 14 14 14
13 13 14 15 15 15 15 17 15 15 14 14 15 15 15 14 14 15 14 13 13 13 13 12 12 12 12 12 12 12 13 13 12 13 14 14 14 15 15 16 16 16 16 15 15 16 16 16 16
14 14 15 16 17 18 18 18 17 16 16 15 16 16 16 15 15 15 15 15 14 14 15 14 13 13 13 13 14 14 14 14 14 15 15 15 16 17 17 17 16 16 17 16 16 17 17 17 17
16 16 17 18 19 20 19 18 18 17 17 16 17 16 17 17 16 16 17 16 16 16 16 16 16 15 15 15 15 15 15 15 15 16 17 17 17 17 18 17 17 17 18 18 18 18 18 18 18
16 18 19 20 20 20 20 19 18 19 19 19 18 18 18 17 17 18 17 17 18 18 18 18 18 17 17 17 17 16 16 16 16 16 17 18 18 19 18 17 17 17 18 19 19 19 19 19 19
20 20 20 21 21 22 23 22 21 21 21 20 20 20 20 19 19 19 20 20 19 19 20 19 18 18 17 17 17 17 17 17 17 18 18 18 19 18 19 18 18 18 18 19 19 19 19 19 19
Wind_Direction
95 90 80 71 65 63 66 66 64 64 57 51 48 45 43 46 51 53 49 49 53 53 51 53 51 46 49 58 63 58 71 75 67 65 81 101 106 113 130 149 156 163 163 153 159 169 176 181 188
90 82 77 67 58 55 59 57 60 59 58 54 47 46 44 49 52 51 47 48 50 50 48 52 54 47 49 55 59 56 56 58 50 35 49 66 99 119 143 140 146 147 142 147 148 149 177 186 187
84 75 75 64 62 58 59 53 54 53 54 54 49 42 38 45 49 47 46 45 47 45 44 50 51 45 43 44 45 46 44 47 45 33 7 325 148 143 160 153 144 148 152 162 150 158 169 184 190
80 67 71 66 61 58 58 50 52 51 49 50 50 47 44 48 50 49 47 45 44 43 43 46 44 43 41 39 33 38 45 48 48 40 24 32 156 163 170 175 165 168 180 194 199 211 225 220 202
77 63 64 65 62 61 58 56 56 45 42 46 48 47 47 54 55 51 48 45 45 46 47 45 45 47 47 46 42 46 59 65 50 40 43 76 103 148 156 167 179 190 215 227 233 237 241 241 216
74 67 65 66 65 54 52 52 52 47 38 41 45 47 50 58 58 51 51 51 50 51 50 48 47 45 48 52 50 42 48 52 44 40 48 58 65 81 107 157 187 214 237 238 245 241 249 230 212
73 69 62 63 66 57 52 54 49 44 40 44 49 51 49 51 51 48 48 50 51 50 46 42 43 46 49 50 53 52 47 48 50 44 49 47 52 56 62 100 188 213 230 240 248 256 250 230 214
59 57 58 60 60 57 54 54 49 48 45 47 49 49 50 50 47 44 42 42 45 47 47 45 47 48 45 43 52 53 45 45 45 45 52 51 40 48 61 28 19 295 254 253 267 282 236 228 210
57 54 57 62 57 55 50 46 49 49 48 48 46 44 48 50 47 44 42 39 39 45 44 42 46 47 42 45 47 50 39 40 41 41 48 56 59 47 39 24 10 334 306 288 331 348 181 195 185
57 52 52 52 57 56 48 41 48 49 52 49 45 43 46 50 51 47 42 41 39 40 42 42 41 38 40 43 43 44 44 44 46 47 48 52 49 38 40 29 15 9 346 360 34 25 149 166 185
71 61 54 48 52 55 48 39 41 47 45 46 45 43 41 44 45 46 42 39 38 36 34 34 37 33 31 34 38 46 52 55 55 45 46 47 42 41 32 22 21 18 14 18 17 332 103 177 190
82 76 61 51 51 49 44 39 39 44 44 42 44 41 41 40 40 41 43 40 35 33 33 32 31 30 29 31 39 40 43 42 41 36 41 49 48 44 33 28 29 31 30 28 21 336 278 239 201
84 82 65 52 46 43 42 41 38 41 46 38 35 33 37 38 38 39 39 35 33 32 32 30 27 26 27 32 38 35 31 27 23 25 27 41 46 45 32 28 31 25 25 28 22 22 355 320 217
79 70 60 51 45 36 34 36 38 39 43 33 26 30 31 33 32 32 31 30 28 28 27 25 23 25 27 31 33 28 15 13 12 17 20 8 12 20 17 15 16 14 13 3 4 359 352 319 286
68 60 58 50 36 34 27 30 33 30 34 25 22 29 27 26 28 27 24 22 21 20 22 21 18 19 22 22 20 11 5 2 2 6 6 354 349 355 2 5 0 356 355 350 343 337 325 312 299
72 65 52 43 32 29 24 26 28 24 23 21 22 24 22 16 17 18 19 18 18 17 16 15 15 16 14 11 9 3 359 357 355 354 350 340 331 335 345 347 340 331 326 323 316 311 308 301 294
94 49 42 35 30 25 19 14 16 12 10 12 14 14 13 8 6 11 13 13 12 10 8 6 7 4 3 1 359 353 348 347 349 349 346 341 331 323 326 329 323 315 309 308 302 297 299 299 298
66 30 17 12 4 356 3 359 2 357 355 358 3 4 5 3 4 7 7 5 2 1 359 355 355 353 350 350 348 342 339 341 337 334 336 338 331 319 314 317 313 309 308 305 301 295 291 289 289
244 327 333 345 343 327 330 334 340 345 346 349 353 359 4 358 358 0 0 357 355 354 350 344 343 341 339 338 337 331 326 329 333 333 332 330 325 318 310 307 310 305 302 301 295 291 288 283 280
236 260 286 316 323 317 309 314 325 337 331 337 338 346 351 347 348 349 350 349 349 350 346 339 335 333 333 332 331 330 324 322 324 324 323 325 320 311 305 309 309 306 304 302 299 295 291 287 283
251 263 285 296 301 303 295 297 314 328 328 325 327 326 330 335 338 339 340 341 340 340 340 337 331 331 330 329 329 326 323 318 315 314 314 315 314 311 298 303 305 305 303 304 302 299 294 289 284
258 260 265 271 279 284 288 295 302 311 320 322 319 321 321 322 328 329 331 333 334 333 332 331 328 327 326 322 321 317 313 310 310 309 309 310 308 305 302 303 301 298 297 297 297 299 293 290 286
251 252 254 259 262 270 278 289 293 302 311 312 314 317 323 322 320 319 321 325 327 327 325 325 327 326 326 321 310 307 306 303 301 304 304 303 301 297 293 295 296 295 294 293 295 298 294 288 287
255 248 253 263 265 268 279 282 287 298 300 302 303 305 311 317 317 317 315 315 317 318 319 320 322 322 323 320 309 303 303 298 297 297 298 298 298 297 292 290 290 289 289 290 292 293 291 287 285
265 261 260 259 263 272 276 279 285 289 293 296 300 300 300 304 311 314 312 310 313 313 314 318 315 315 315 313 307 304 300 295 293 293 294 295 295 297 295 291 289 287 288 289 289 289 288 287 283
263 265 266 272 274 276 277 277 283 288 291 292 298 300 300 301 307 306 310 310 311 308 309 308 308 308 308 308 304 302 300 297 292 291 291 291 293 292 293 292 289 286 286 287 288 289 288 286 284
266 263 265 272 276 276 277 279 278 284 288 291 295 297 300 298 301 302 303 304 304 303 305 304 300 303 305 306 304 299 299 295 294 295 293 291 290 291 290 292 288 287 287 287 288 288 286 286 284
258 262 266 269 273 273 274 276 278 282 285 287 289 293 296 296 297 299 298 299 299 301 302 303 301 302 301 300 306 300 295 294 292 291 292 292 291 290 290 291 288 286 288 287 286 286 285 284 281
247 253 259 265 270 273 274 275 280 284 288 291 290 289 291 292 298 299 297 298 299 299 300 301 300 301 300 299 300 303 300 297 296 292 291 293 293 292 291 288 286 285 284 285 283 285 284 282 279
251 253 257 263 266 271 274 277 282 285 289 289 288 291 292 290 293 294 295 296 298 299 298 296 297 296 297 298 298 298 299 299 299 298 295 294 291 292 289 287 288 286 285 284 283 281 284 281 278
Height
5897 5896 5896 5895 5896 5895 5894 5894 5893 5893 5893 5892 5891 5891 5891 5891 5891 5892 5889 5887 5886 5885 5885 5884 5884 5884 5884 5884 5883 5883 5883 5883 5883 5883 5883 5883 5883 5883 5883 5883 5883 5883 5883 5883 5883 5883 5883 5884 5884
5898 5897 5898 5897 5896 5895 5895 5895 5895 5894 5894 5893 5893 5892 5892 5892 5891 5890 5889 5888 5887 5886 5886 5885 5885 5885 5885 5885 5884 5884 5884 5884 5884 5884 5884 5884 5884 5884 5884 5883 5883 5883 5883 5883 5883 5883 5883 5883 5883
5899 5899 5899 5897 5896 5896 5896 5895 5896 5895 5895 5894 5894 5894 5893 5892 5892 5891 5890 5889 5888 5887 5887 5886 5886 5886 5885 5885 5885 5885 5885 5884 5884 5884 5884 5884 5884 5884 5884 5884 5884 5883 5883 5883 5883 5883 5883 5883 5883
5900 5900 5899 5898 5896 5896 5896 5896 5896 5896 5896 5896 5895 5895 5894 5893 5892 5891 5890 5890 5889 5888 5888 5887 5887 5886 5886 5886 5886 5885 5885 5885 5885 5885 5885 5884 5884 5884 5884 5884 5884 5884 5883 5883 5883 5882 5882 5882 5882
5901 5901 5900 5898 5897 5897 5897 5897 5898 5897 5897 5896 5896 5895 5895 5894 5893 5892 5891 5891 5890 5889 5889 5888 5887 5886 5886 5886 5886 5886 5885 5885 5885 5885 5885 5885 5885 5884 5884 5884 5884 5883 5883 5883 5882 5882 5882 5881 5882
5903 5903 5902 5901 5900 5899 5899 5899 5899 5899 5898 5897 5897 5896 5895 5895 5894 5893 5892 5892 5891 5890 5890 5889 5888 5887 5887 5887 5886 5886 5886 5886 5886 5885 5885 5885 5885 5885 5884 5884 5884 5883 5882 5882 5881 5881 5880 5881 5881
5906 5904 5904 5903 5902 5902 5901 5901 5900 5900 5900 5899 5898 5897 5896 5895 5894 5894 5893 5892 5891 5891 5890 5890 5889 5888 5887 5887 5887 5887 5887 5886 5886 5886 5886 5885 5885 5885 5884 5884 5883 5883 5882 5881 5880 5879 5879 5879 5880
5906 5906 5905 5904 5904 5903 5903 5902 5902 5901 5901 5900 5899 5899 5898 5897 5895 5894 5893 5892 5892 5891 5891 5890 5890 5889 5888 5888 5888 5887 5887 5886 5886 5886 5886 5885 5885 5885 5884 5884 5883 5882 5881 5880 5879 5878 5878 5878 5879
5908 5908 5905 5905 5905 5905 5904 5904 5903 5902 5901 5900 5900 5899 5899 5898 5896 5895 5894 5893 5893 5892 5891 5891 5891 5890 5890 5889 5888 5888 5887 5887 5887 5886 5886 5886 5885 5885 5884 5884 5883 5882 5881 5880 5879 5877 5877 5878 5879
5908 5909 5908 5907 5906 5906 5906 5905 5904 5903 5902 5902 5901 5900 5899 5899 5898 5897 5896 5895 5894 5893 5892 5891 5891 5890 5890 5889 5888 5888 5887 5887 5887 5886 5886 5886 5885 5885 5884 5884 5883 5882 5881 5880 5879 5878 5878 5878 5878
5909 5910 5910 5909 5908 5907 5907 5907 5906 5904 5904 5903 5902 5901 5900 5899 5899 5897 5896 5895 5894 5893 5892 5891 5891 5890 5889 5889 5888 5888 5887 5887 5887 5886 5886 5886 5885 5885 5884 5884 5883 5882 5881 5881 5880 5879 5879 5879 5879
5911 5911 5910 5910 5909 5909 5908 5908 5907 5906 5905 5904 5903 5902 5901 5900 5899 5898 5897 5896 5895 5894 5893 5892 5891 5890 5890 5889 5888 5888 5888 5887 5887 5886 5886 5886 5885 5885 5884 5883 5883 5882 5881 5881 5880 5879 5879 5879 5879
5913 5912 5912 5911 5911 5910 5910 5909 5908 5907 5906 5905 5904 5903 5902 5900 5899 5899 5898 5897 5896 5895 5894 5893 5892 5891 5890 5889 5888 5888 5887 5887 5886 5886 5885 5885 5885 5884 5884 5883 5883 5882 5881 5881 5880 5879 5879 5879 5879
5913 5913 5913 5913 5912 5911 5911 5911 5910 5909 5907 5906 5905 5903 5902 5901 5900 5899 5898 5897 5896 5895 5894 5893 5892 5891 5890 5889 5888 5888 5887 5887 5886 5885 5885 5883 5883 5883 5883 5883 5882 5882 5881 5880 5880 5879 5878 5878 5878
5914 5915 5914 5914 5913 5913 5912 5912 5911 5909 5908 5907 5905 5904 5903 5902 5901 5900 5899 5897 5896 5895 5894 5893 5892 5891 5890 5889 5888 5887 5887 5886 5885 5884 5884 5883 5883 5883 5882 5882 5882 5881 5880 5879 5879 5879 5878 5878 5877
5915 5915 5915 5914 5913 5913 5914 5913 5911 5910 5909 5907 5906 5905 5904 5903 5902 5900 5899 5898 5896 5895 5894 5893 5892 5891 5890 5889 5888 5887 5886 5885 5885 5884 5883 5883 5882 5882 5882 5881 5881 5880 5879 5878 5878 5878 5877 5877 5877
5915 5915 5914 5914 5913 5913 5913 5912 5911 5910 5909 5908 5907 5906 5905 5903 5902 5901 5900 5898 5897 5895 5894 5892 5891 5891 5889 5888 5887 5886 5885 5884 5884 5883 5882 5881 5881 5880 5880 5880 5879 5879 5878 5877 5877 5876 5876 5876 5875
5915 5914 5913 5913 5913 5913 5913 5912 5911 5910 5909 5908 5907 5906 5905 5903 5902 5901 5900 5898 5896 5895 5893 5892 5891 5890 5889 5887 5886 5885 5884 5883 5882 5881 5881 5880 5879 5879 5878 5878 5877 5877 5876 5875 5875 5874 5874 5874 5873
5913 5913 5913 5913 5913 5913 5912 5912 5911 5909 5909 5908 5907 5906 5905 5903 5902 5901 5899 5897 5896 5894 5892 5891 5890 5888 5887 5886 5885 5884 5882 5881 5880 5879 5879 5878 5877 5877 5876 5875 5875 5874 5873 5873 5873 5872 5871 5871 5871
5911 5912 5912 5912 5912 5911 5911 5911 5909 5909 5908 5907 5906 5905 5904 5903 5902 5900 5899 5897 5895 5893 5892 5890 5888 5887 5885 5884 5883 5881 5880 5879 5878 5877 5877 5876 5876 5875 5874 5873 5872 5872 5871 5870 5870 5869 5869 5868 5868
5910 5911 5910 5910 5910 5910 5910 5909 5908 5907 5906 5906 5905 5904 5904 5902 5901 5899 5897 5896 5894 5892 5890 5889 5887 5885 5884 5882 5880 5879 5878 5877 5876 5875 5875 5874 5873 5872 5871 5870 5870 5869 5868 5868 5868 5867 5866 5866 5865
5909 5909 5909 5909 5909 5908 5908 5907 5907 5905 5904 5904 5903 5902 5902 5900 5899 5897 5896 5894 5892 5891 5889 5887 5885 5883 5882 5879 5878 5877 5876 5875 5874 5873 5872 5872 5871 5870 5869 5868 5867 5866 5866 5865 5865 5864 5863 5863 5862
5906 5907 5907 5907 5907 5907 5906 5905 5905 5903 5902 5902 5901 5900 5899 5898 5897 5895 5893 5892 5890 5889 5887 5885 5883 5881 5879 5877 5876 5875 5874 5873 5872 5871 5870 5869 5868 5867 5866 5865 5864 5863 5863 5862 5861 5860 5859 5859 5858
5904 5904 5904 5904 5904 5904 5904 5903 5903 5901 5900 5899 5898 5898 5897 5896 5894 5892 5891 5889 5888 5886 5884 5882 5881 5879 5877 5875 5874 5872 5871 5870 5869 5868 5867 5866 5865 5864 5862 5862 5861 5860 5859 5858 5857 5856 5855 5855 5854
5901 5901 5901 5901 5900 5900 5900 5899 5900 5899 5898 5897 5895 5895 5894 5894 5891 5889 5887 5887 5885 5884 5882 5880 5878 5877 5875 5873 5871 5870 5869 5867 5866 5865 5863 5862 5861 5860 5859 5857 5856 5855 5854 5853 5853 5852 5851 5850 5849
5897 5898 5898 5897 5896 5896 5896 5895 5896 5895 5895 5894 5893 5892 5891 5891 5889 5887 5885 5884 5882 5881 5879 5877 5875 5873 5872 5870 5868 5867 5865 5864 5862 5861 5860 5858 5857 5856 5855 5853 5852 5850 5849 5848 5847 5846 5845 5845 5844
5894 5894 5894 5894 5893 5892 5891 5891 5891 5891 5890 5890 5889 5888 5887 5887 5886 5883 5881 5880 5879 5877 5876 5874 5872 5870 5868 5866 5864 5862 5861 5860 5859 5857 5855 5854 5852 5851 5849 5848 5846 5845 5844 5843 5842 5841 5840 5840 5839
5890 5890 5890 5890 5889 5888 5887 5887 5887 5887 5887 5886 5885 5884 5883 5882 5881 5879 5878 5876 5874 5872 5871 5869 5868 5866 5864 5861 5859 5857 5856 5855 5854 5852 5851 5849 5847 5845 5844 5842 5841 5840 5839 5838 5837 5836 5835 5834 5833
5886 5886 5885 5885 5884 5883 5882 5884 5883 5882 5881 5881 5880 5879 5878 5877 5876 5875 5873 5871 5869 5868 5866 5865 5863 5861 5859 5857 5855 5854 5852 5850 5848 5847 5845 5844 5842 5840 5838 5837 5835 5834 5832 5831 5831 5830 5829 5828 5827
5880 5880 5880 5880 5879 5879 5878 5880 5878 5878 5877 5876 5875 5874 5873 5871 5870 5869 5868 5866 5865 5863 5861 5860 5858 5857 5855 5853 5851 5849 5847 5846 5844 5842 5841 5839 5837 5835 5833 5831 5829 5828 5826 5825 5824 5823 5822 5821 5820